Regional Weather Roundup
Issued by NWS Sterling, VA

Home | Current Version | Previous Version | Graphics & Text | Print | Product List | Glossary On
Versions: 1 2 3 4 5 6 7 8 9 10 11 12 13 14 15 16 17 18 19 20 21 22 23 24 25 26 27 28 29 30 31 32 33 34 35 36 37 38 39 40 41 42 43 44 45 46 47 48 49 50
000
ASUS41 KLWX 011210
RWRLWX

REGIONAL WEATHER ROUNDUP
NATIONAL WEATHER SERVICE BALTIMORE MD/WASHINGTON DC
800 AM EDT WED APR 01 2015

Note: "FAIR" indicates few or no clouds below 12,000 feet
with no significant weather and/or obstructions to visibility.
 TC=TEMPERATURE CELSIUS

 * =Non NWS site. Station does not report precipitation (e.g. rain,
    snow, etc.), thunder, or fog.

DCZ001-MDZ009-015-VAZ040>042-051-053>054-011300-
WASHINGTON METRO

CITY           SKY/WX    TMP DP  RH WIND       PRES   REMARKS
WASHINGTON NAT MOSUNNY   43  27  53 NW9       30.12R
DULLES         SUNNY     36  27  69 NW5       30.11R
ANDREWS AFB    SUNNY     40  28  62 W6        30.09R
FT BELVOIR     SUNNY     34  30  85 W1        30.12R
QUANTICO       SUNNY     38  31  76 NW7       30.13R
LEESBURG*      SUNNY     34  32  93 CALM      30.12R
MANASSAS*      SUNNY     32  32 100 CALM      30.12R
GAITHERSBURG*  SUNNY     30  27  86 CALM      30.13R

$$

MDZ006>007-011-014-011300-
BALTIMORE METRO

CITY           SKY/WX    TMP DP  RH WIND       PRES   REMARKS
BWI AIRPORT    MOSUNNY   36  29  75 W3        30.09R
MD SCIENCE CTR   N/A     40  28  62 MISG      30.10R
MARTIN STATE   SUNNY     36  32  87 W5        30.11R
ANNAPOLIS      SUNNY     39  30  70 NW3       30.10R

$$

MDZ012-015-019>023-011300-
MARYLAND EASTERN SHORE

CITY           SKY/WX    TMP DP  RH WIND       PRES   REMARKS
OCEAN CITY     SUNNY     37  29  72 N14       30.06R WCI  28
SALISBURY      SUNNY     37  29  72 NW10      30.07R
BAY BRIDGE AP*   N/A     39  32  75 NW7       30.10R
CAMBRIDGE*     SUNNY     43  30  61 NW10      30.08R
EASTON*        SUNNY     39  32  75 NW3       30.12R

$$

MDZ017>025-011300-
SOUTHERN MARYLAND

CITY           SKY/WX    TMP DP  RH WIND       PRES   REMARKS
PATUXENT RIVER SUNNY     40  32  73 NW13      30.09R
ST INIGOES     SUNNY     40  30  67 VRB6      30.09R
LEONARDTOWN*   SUNNY     37  30  75 NW6       30.11R

$$

MDZ003>005-011300-
NORTH CENTRAL MARYLAND

CITY           SKY/WX    TMP DP  RH WIND       PRES   REMARKS
FREDERICK*     SUNNY     34  27  75 SW3       30.13R
HAGERSTOWN APT SUNNY     36  25  64 W6        30.08R
WESTMINSTER*   SUNNY     32  28  86 CALM      30.07R

$$

MDZ501>502-011300-
WESTERN MARYLAND

CITY           SKY/WX    TMP DP  RH WIND       PRES   REMARKS
OAKLAND*       SUNNY     27 N/A N/A NW3       30.01R
CUMBERLAND*    SUNNY     34  27  75 CALM      30.13R

$$

VAZ025>031-011300-
SHENANDOAH VALLEY

CITY           SKY/WX    TMP DP  RH WIND       PRES   REMARKS
WINCHESTER*    SUNNY     34  27  75 CALM      30.10R
FRONT ROYAL*   FAIR      32  28  86 S3        30.09R
LURAY*         FAIR      34  32  93 CALM      30.09R
NEW MARKET*    FAIR      29  26  85 CALM      30.09R
STAUNTON*      SUNNY     32  27  80 CALM      30.10R
WAYNESBORO*    FAIR      37  27  66 NW6       30.07R

$$

WVZ021-048>050-054>055-011300-
EASTERN WEST VIRGINIA PANHANDLE

CITY           SKY/WX    TMP DP  RH WIND       PRES   REMARKS
MARTINSBURG    SUNNY     34  25  69 SW3       30.10R
PETERSBURG*    SUNNY     30  24  79 CALM      30.11R

$$

VAZ036>039-050-011300-
CENTRAL FOOTHILLS

CITY           SKY/WX    TMP DP  RH WIND       PRES   REMARKS
CHARLOTTESVILL SUNNY     39  29  67 CALM      30.09R
CULPEPER*      SUNNY     34  30  86 CALM      30.12R
ORANGE*        SUNNY     36  32  87 CALM      30.12R
GORDONSVILLE*  FAIR      33  29  86 NE5       30.10R
WARRENTON*     FAIR      33  33 100 CALM      30.11R

$$

VAZ055>057-011300-
NORTH AND CENTRAL PIEDMONT

CITY           SKY/WX    TMP DP  RH WIND       PRES   REMARKS
FREDERICKSBRG* SUNNY     36  32  84 CALM      30.12R
STAFFORD*      SUNNY     31  50 100 NW3       30.15R

$$

NCZ024-NYZ072-PAZ021-071-VAZ022-071-011300-
OTHER REGIONAL OBSERVATIONS

CITY           SKY/WX    TMP DP  RH WIND       PRES   REMARKS
NEW YORK CITY  PTSUNNY   33  20  58 CALM      30.03R
PHILADELPHIA   MOSUNNY   36  24  62 NW3       30.08R
PITTSBURGH     FAIR      28  23  81 CALM      30.09R
ROANOKE        CLEAR     45  30  55 CALM      30.09R
RICHMOND       MOSUNNY   42  27  55 N13       30.10R
RALEIGH        MOSUNNY   50  38  63 NE12      30.05R

$$

ANZ530>537-011300-
MARINE OBSERVATIONS

STATION/POSITION TIME  TEMP    WIND        PRES
                       AIR SEA DIR/SP/G
                 (UTC) (F)     (DEG/KT/KT) (MB)
THOMAS PT LIGHT  1200                        N/A
BALT KEY BRIDGE  1100   37     270/  6/  7 1017.8R
COVE POINT       1100   37     310/  6/  8 1017.7R
LEWISETTA        1100   41 45              1017.7R
SOLOMONS ISLAND  1100      44                N/A
PINEY POINT      1100          360/ 13/ 13   N/A

$$



USA.gov is the U.S. government's official web portal to all federal, state and local government web resources and services.